[[{"header":{"parameterUnit":"m.s-1","parameterCategory":1,"la1":30.2991,"la2":30.254,"lo1":-89.0895,"lo2":-89.0444,"dy":0.0017,"dx":0.0017,"nx":28,"ny":28,"refTime":"2024-12-06T03:00:00:Z","depth":0,"parameterNumber":2,"parameterNumberName":"U-component_of_WINDS"},"data":[0,0,0,0,0,0,0,0,0,0,0,0,0,0,0,0,0,0,0,0,0,0,0,0,0,0,0,0,0,0,0,0,0,0,0,0,0,0,0,0,0,0,0,0,0,0,0,0,0,0,0,0,0,0,0,0,0,0,-1.8563,-1.8563,0,-1.8551,-1.8551,-1.8551,-1.846,-1.8457,-1.8455,-1.8453,-1.8444,-1.8446,-1.8447,0,0,0,0,0,0,0,0,0,0,0,0,0,-1.8511,-1.8513,-1.8563,-1.8563,-1.8563,-1.8551,-1.8551,-1.8551,-1.846,-1.8457,-1.8455,-1.8452,-1.8443,-1.8445,-1.8448,0,0,0,0,0,0,0,0,0,0,0,0,0,-1.852,-1.8513,-1.8564,-1.8516,-1.8512,-1.8551,-1.8551,-1.8551,-1.8461,-1.8457,-1.8454,-1.8451,-1.8442,-1.8445,-1.8448,-1.8533,0,0,-1.8456,-1.8458,0,0,0,0,0,0,0,0,-1.852,-1.8522,-1.8523,-1.852,-1.8515,-1.8503,-1.8529,-1.8545,-1.8462,-1.848,-1.8453,-1.8449,-1.8467,-1.8467,-1.8472,-1.8532,-1.8532,-1.8457,-1.8458,-1.846,-1.846,0,0,0,0,0,0,0,-1.8519,-1.8522,-1.8559,-1.8524,-1.8518,-1.8497,-1.8494,-1.8532,-1.8493,-1.8478,-1.8472,-1.8471,-1.8464,-1.847,-1.8472,-1.8532,-1.8457,-1.8459,-1.8461,-1.8462,-1.8662,-1.8665,0,0,0,0,0,0,-1.8525,-1.8522,-1.8559,-1.8558,-1.8509,-1.85,-1.8498,-1.8511,-1.8492,-1.8486,-1.8474,-1.8467,-1.8467,-1.8468,-1.8471,-1.857,-1.8459,-1.8462,-1.8464,-1.8658,-1.8663,-1.8667,0,0,0,0,0,0,-1.8524,-1.8529,-1.856,-1.8538,-1.8541,-1.8505,-1.852,-1.8512,-1.8518,-1.8489,-1.8482,-1.8488,-1.8464,-1.8467,-1.8518,-1.8569,-1.8463,-1.8466,-1.8654,-1.866,-1.8665,-1.8769,0,0,0,0,0,0,-1.8523,-1.8529,-1.856,-1.854,-1.8542,-1.8607,-1.8523,-1.8514,-1.8523,-1.8514,-1.85,-1.8494,-1.8462,-1.8514,-1.8521,-1.8571,-1.8468,-1.8649,-1.8656,-1.8663,-1.8761,-1.8778,-1.8792,0,0,0,0,0,-1.8521,-1.8591,-1.8562,-1.8567,-1.858,-1.8609,-1.8611,-1.8572,-1.8527,-1.8559,-1.854,-1.8494,-1.8562,-1.852,-1.8527,-1.8578,-1.8646,-1.8654,-1.8662,-1.8755,-1.8775,-1.8792,0,0,0,0,0,0,-1.8619,-1.8587,-1.8555,-1.862,-1.8618,-1.8594,-1.8633,-1.8594,-1.8605,-1.8596,-1.8548,-1.8545,-1.8604,-1.8596,-1.8551,-1.866,-1.8596,-1.8606,-1.8664,-1.8683,-1.8698,-1.87,-1.847,0,0,0,0,0,-1.8648,-1.8673,-1.8644,-1.8704,-1.8705,-1.8669,-1.868,-1.865,-1.8647,-1.8646,-1.863,-1.863,-1.8651,-1.8666,-1.8683,-1.8759,-1.8756,-1.8797,-1.8813,-1.8825,-1.8835,-1.8877,-1.8896,-1.8694,-1.8693,-1.8693,0,0,-1.8708,-1.8694,-1.8713,-1.8723,-1.8718,-1.8747,-1.8669,-1.8703,-1.8724,-1.8651,-1.8699,-1.8688,-1.8684,-1.8748,-1.8775,-1.8743,-1.889,-1.8836,-1.8846,-1.8849,-1.8887,-1.8906,-1.8924,-1.8699,-1.8698,-1.8697,0,0,-1.8833,-1.8824,-1.8874,-1.887,-1.8863,-1.8839,-1.8851,-1.8833,-1.8823,-1.8869,-1.8816,-1.8841,-1.8877,-1.8877,-1.8882,-1.9007,-1.8967,-1.9014,-1.9095,-1.9136,-1.9152,-1.9166,-1.9213,-1.9231,-1.9024,-1.9024,-1.9024,0,-1.891,-1.895,-1.8905,-1.8942,-1.8949,-1.8883,-1.8934,-1.8933,-1.8932,-1.8939,-1.8902,-1.8947,-1.894,-1.9004,-1.9035,-1.904,-1.9054,-1.9017,-1.9153,-1.9167,-1.9179,-1.9224,-1.9241,-1.903,-1.9029,-1.9029,-1.9028,0,-1.9046,-1.9075,-1.9115,-1.9117,-1.9128,-1.9172,-1.9134,-1.9151,-1.9119,-1.91,-1.9149,-1.9137,-1.9152,-1.9165,-1.9135,-1.9226,-1.9206,-1.9162,-1.9097,-1.9205,-1.9247,-1.9263,-1.9039,-1.9037,-1.9035,-1.9033,0,0,-1.9234,-1.9208,-1.9225,-1.9225,-1.9212,-1.9234,-1.9276,-1.9289,-1.9306,-1.9307,-1.9343,-1.9375,-1.9334,-1.934,-1.9309,-1.9345,-1.9448,-1.9296,-1.9295,-1.9327,-1.955,-1.9585,-1.9606,-1.9419,-1.9422,-1.9425,-1.9551,0,-1.9356,-1.9425,-1.9385,-1.946,-1.9488,-1.9425,-1.9461,-1.9458,-1.9441,-1.9462,-1.9443,-1.9468,-1.9411,-1.9414,-1.9446,-1.9428,-1.9492,-1.9418,-1.9454,-1.9456,-1.946,-1.9627,-1.9664,-1.9784,-1.9567,-1.9569,-1.9571,0,-1.9508,-1.9517,-1.9595,-1.9578,-1.9588,-1.9621,-1.9631,-1.9651,-1.9647,-1.9632,-1.9639,-1.9599,-1.964,-1.9574,-1.9631,-1.9582,-1.9593,-1.9587,-1.959,-1.9595,-1.9522,-1.9638,-1.9821,-1.984,-1.9596,-1.9594,-1.9592,0,-1.9641,-1.9671,-1.9722,-1.9724,-1.9705,-1.973,-1.9724,-1.9716,-1.9727,-1.9736,-1.9743,-1.9756,-1.9765,-1.9777,-1.9743,-1.9697,-1.9805,-1.9736,-1.9796,-1.9797,-1.9824,-1.9824,-2.0014,-1.9827,-1.9827,-1.9827,-1.9826,0,-1.9784,-1.9835,-1.9782,-1.9814,-1.987,-1.9823,-1.988,-1.9866,-1.986,-1.9889,-1.9835,-1.9864,-1.9816,-1.984,-1.9813,-1.9866,-1.9869,-1.986,-1.9853,-1.9867,-1.9868,-1.9876,-1.9868,-1.9831,-1.983,-1.9829,-1.9829,0,-1.9943,-1.9909,-1.9961,-1.9938,-1.9934,-1.9976,-1.9958,-1.9987,-1.9965,-2.0003,-2.0009,-1.9976,-2.0002,-1.9968,-1.999,-1.9973,-2.0046,-2.0024,-2.0047,-2.0042,-2.0106,-2.0101,-2.0311,-2.0337,-2.013,-2.0132,-2.0134,0,-2.0037,-2.0075,-2.0057,-2.0072,-2.0068,-2.0093,-2.0104,-2.006,-2.0074,-2.0072,-2.0102,-2.0123,-2.0138,-2.0183,-2.0161,-2.0179,-2.016,-2.0231,-2.0162,-2.0175,-2.0164,-2.0164,-2.0168,-2.0247,-2.0249,-2.0251,-2.0253,0,-2.021,-2.0191,-2.0209,-2.0221,-2.0235,-2.0243,-2.0247,-2.0262,-2.0216,-2.0235,-2.026,-2.0272,-2.0294,-2.0317,-2.0329,-2.0323,-2.0282,-2.0275,-2.029,-2.0306,-2.0319,-2.0316,-2.0089,-2.0271,-2.0269,-2.0268,-2.0267,-2.0266,-2.0341,-2.0373,-2.0365,-2.0386,-2.0384,-2.0389,-2.0416,-2.0397,-2.0417,-2.0432,-2.0405,-2.0438,-2.0433,-2.0445,-2.0444,-2.047,-2.0439,-2.0461,-2.0467,-2.0474,-2.0485,-2.0312,-2.0472,-2.0471,-2.047,-2.047,-2.047,0,-2.0513,-2.0505,-2.0525,-2.0532,-2.055,-2.0506,-2.0508,-2.0527,-2.0556,-2.0555,-2.057,-2.06,-2.0622,-2.0602,-2.062,-2.0645,-2.0627,-2.0652,-2.0651,-2.0651,-2.051,-2.0496,-2.0666,-2.0666,-2.0666,-2.0666,-2.0666,-2.0666,-2.0605,-2.0657,-2.0637,-2.0688,-2.0679,-2.071,-2.0715,-2.072,-2.0719,-2.0755,-2.0772,-2.0759,-2.0751,-2.0768,-2.0786,-2.078,-2.079,-2.0823,-2.0811,-2.068,-2.0661,-2.0642,-2.0629,-2.0825,-2.0825,-2.095,-2.0951,-2.0952]},{"header":{"parameterUnit":"m.s-1","parameterCategory":1,"la1":30.2991,"la2":30.254,"lo1":-89.0895,"lo2":-89.0444,"dy":0.0017,"dx":0.0017,"nx":28,"ny":28,"refTime":"2024-12-06T03:00:00:Z","depth":0,"parameterNumber":3,"parameterNumberName":"V-component_of_WINDS"},"data":[0,0,0,0,0,0,0,0,0,0,0,0,0,0,0,0,0,0,0,0,0,0,0,0,0,0,0,0,0,0,0,0,0,0,0,0,0,0,0,0,0,0,0,0,0,0,0,0,0,0,0,0,0,0,0,0,0,0,-1.9446,-1.9446,0,-1.9488,-1.9488,-1.9489,-1.9471,-1.947,-1.9469,-1.9468,-1.951,-1.9512,-1.9514,0,0,0,0,0,0,0,0,0,0,0,0,0,-1.9348,-1.935,-1.9445,-1.9446,-1.9447,-1.9488,-1.9488,-1.9489,-1.9471,-1.947,-1.9468,-1.9467,-1.9509,-1.9512,-1.9514,0,0,0,0,0,0,0,0,0,0,0,0,0,-1.939,-1.935,-1.9445,-1.9443,-1.9443,-1.9488,-1.9488,-1.9489,-1.9471,-1.947,-1.9468,-1.9467,-1.9508,-1.9511,-1.9514,-1.9564,0,0,-1.9524,-1.9525,0,0,0,0,0,0,0,0,-1.9388,-1.9394,-1.9442,-1.9443,-1.9443,-1.9472,-1.9469,-1.9514,-1.9472,-1.946,-1.9468,-1.9466,-1.9499,-1.9502,-1.9514,-1.9566,-1.9568,-1.9524,-1.9526,-1.9527,-1.9528,0,0,0,0,0,0,0,-1.9385,-1.9392,-1.9462,-1.9443,-1.9444,-1.9439,-1.9443,-1.9478,-1.9487,-1.9461,-1.946,-1.9465,-1.9498,-1.9511,-1.9514,-1.9568,-1.9524,-1.9527,-1.9529,-1.953,-1.9664,-1.9666,0,0,0,0,0,0,-1.9382,-1.9389,-1.9461,-1.9463,-1.9411,-1.9442,-1.9447,-1.9465,-1.9487,-1.9489,-1.9467,-1.9464,-1.9506,-1.9511,-1.9516,-1.9576,-1.9527,-1.953,-1.9532,-1.9663,-1.9665,-1.9667,0,0,0,0,0,0,-1.938,-1.9389,-1.9459,-1.9426,-1.9435,-1.9445,-1.9465,-1.9466,-1.9478,-1.9491,-1.9493,-1.9477,-1.9505,-1.9511,-1.9552,-1.9578,-1.9532,-1.9534,-1.9661,-1.9663,-1.9666,-1.9697,0,0,0,0,0,0,-1.9377,-1.9388,-1.9407,-1.9427,-1.9437,-1.9496,-1.9467,-1.9468,-1.9484,-1.9481,-1.9502,-1.9504,-1.9504,-1.9548,-1.9556,-1.9581,-1.9537,-1.9658,-1.9662,-1.9665,-1.9694,-1.9701,-1.9706,0,0,0,0,0,-1.9374,-1.9414,-1.9408,-1.9417,-1.9461,-1.9497,-1.9503,-1.9503,-1.9486,-1.9506,-1.9514,-1.9503,-1.9573,-1.9552,-1.9561,-1.9587,-1.9657,-1.9661,-1.9665,-1.9691,-1.9699,-1.9706,0,0,0,0,0,0,-1.9397,-1.9417,-1.9411,-1.9458,-1.9476,-1.9494,-1.9519,-1.9511,-1.9534,-1.9531,-1.953,-1.9535,-1.9577,-1.9586,-1.9562,-1.9637,-1.9612,-1.9618,-1.963,-1.9638,-1.9644,-1.9641,-1.9539,0,0,0,0,0,-1.9408,-1.9436,-1.9451,-1.9492,-1.9501,-1.9508,-1.9524,-1.9523,-1.9541,-1.9549,-1.956,-1.9577,-1.9603,-1.9621,-1.9645,-1.9695,-1.9699,-1.9717,-1.9723,-1.9728,-1.9734,-1.9761,-1.9769,-1.9679,-1.9679,-1.9679,0,0,-1.943,-1.9444,-1.9462,-1.9497,-1.9511,-1.954,-1.9515,-1.9546,-1.9568,-1.9553,-1.9593,-1.9602,-1.9621,-1.9667,-1.9688,-1.9676,-1.9759,-1.9733,-1.9737,-1.974,-1.9766,-1.9774,-1.9782,-1.9682,-1.9681,-1.9681,0,0,-1.9486,-1.9499,-1.9535,-1.955,-1.9571,-1.9575,-1.9584,-1.9603,-1.9608,-1.9648,-1.9638,-1.9663,-1.9708,-1.9722,-1.9736,-1.9797,-1.9788,-1.9805,-1.9837,-1.9864,-1.9871,-1.9877,-1.99,-1.9908,-1.981,-1.981,-1.981,0,-1.9512,-1.9555,-1.9555,-1.9587,-1.9603,-1.9591,-1.9628,-1.9641,-1.9669,-1.968,-1.9666,-1.9723,-1.9735,-1.9784,-1.9799,-1.981,-1.982,-1.9803,-1.987,-1.9876,-1.9882,-1.9904,-1.9913,-1.9812,-1.9812,-1.9811,-1.9811,0,-1.9586,-1.9616,-1.9642,-1.967,-1.9689,-1.9723,-1.9727,-1.9746,-1.9743,-1.9749,-1.9789,-1.9804,-1.9831,-1.9842,-1.9839,-1.9892,-1.9884,-1.987,-1.9846,-1.9893,-1.9913,-1.9922,-1.9815,-1.9814,-1.9813,-1.9813,0,0,-1.9659,-1.9686,-1.9696,-1.9709,-1.9731,-1.9754,-1.9787,-1.9815,-1.9831,-1.985,-1.9879,-1.9917,-1.9904,-1.992,-1.9918,-1.9941,-1.999,-1.9925,-1.9925,-1.9937,-2.0049,-2.006,-2.007,-1.9984,-1.9985,-1.9986,-2.0048,0,-1.9717,-1.9777,-1.9777,-1.9832,-1.986,-1.9849,-1.9878,-1.9895,-1.9901,-1.9925,-1.9931,-1.9959,-1.994,-1.9949,-1.9972,-1.9979,-2.0013,-1.9975,-2.001,-2.0012,-2.0008,-2.0081,-2.0093,-2.015,-2.0056,-2.0057,-2.0058,0,-1.9794,-1.9817,-1.9875,-1.9894,-1.9905,-1.9932,-1.9957,-1.998,-1.9999,-2.0001,-2.0018,-2.0013,-2.0047,-2.002,-2.0067,-2.0041,-2.0055,-2.0061,-2.0064,-2.0068,-2.0039,-2.0088,-2.0168,-2.0178,-2.007,-2.0069,-2.0069,0,-1.9843,-1.9888,-1.9929,-1.994,-1.9962,-1.9981,-1.9991,-2.0008,-2.0025,-2.0046,-2.0057,-2.0082,-2.0096,-2.0116,-2.0117,-2.0098,-2.0165,-2.0138,-2.0168,-2.0168,-2.0184,-2.0183,-2.0269,-2.0191,-2.0191,-2.0191,-2.019,0,-1.991,-1.9946,-1.9951,-1.9977,-2.0017,-2.0016,-2.0055,-2.0064,-2.0079,-2.0105,-2.0096,-2.0121,-2.0121,-2.0146,-2.0147,-2.0186,-2.0192,-2.0195,-2.0195,-2.0197,-2.0197,-2.0208,-2.0204,-2.0193,-2.0192,-2.0192,-2.0192,0,-1.9972,-1.9977,-2.0021,-2.0038,-2.0044,-2.0073,-2.0087,-2.0111,-2.0116,-2.0149,-2.0157,-2.0165,-2.0194,-2.0197,-2.0231,-2.0231,-2.0279,-2.0274,-2.0273,-2.0273,-2.0303,-2.0301,-2.04,-2.0413,-2.0325,-2.0326,-2.0327,0,-2.0015,-2.0043,-2.0064,-2.0081,-2.0092,-2.012,-2.0137,-2.0137,-2.0155,-2.0178,-2.0199,-2.0227,-2.025,-2.0297,-2.0306,-2.0331,-2.0328,-2.0361,-2.0332,-2.0333,-2.033,-2.0329,-2.0332,-2.0367,-2.0368,-2.0369,-2.0369,0,-2.0091,-2.0092,-2.0118,-2.0144,-2.0165,-2.0185,-2.0204,-2.0219,-2.0221,-2.0242,-2.0272,-2.0289,-2.0324,-2.0352,-2.0378,-2.0387,-2.0379,-2.0378,-2.0387,-2.0389,-2.0388,-2.0391,-2.029,-2.0376,-2.0375,-2.0375,-2.0375,-2.0374,-2.0146,-2.0171,-2.0189,-2.0218,-2.0232,-2.025,-2.0274,-2.0282,-2.0307,-2.0336,-2.0334,-2.0367,-2.0384,-2.0417,-2.0429,-2.0455,-2.0444,-2.0456,-2.0459,-2.0463,-2.0467,-2.0383,-2.0459,-2.0459,-2.0459,-2.0459,-2.0458,0,-2.0223,-2.0234,-2.0261,-2.0288,-2.0311,-2.03,-2.0321,-2.034,-2.037,-2.0387,-2.041,-2.0444,-2.0472,-2.0482,-2.0509,-2.0528,-2.0524,-2.0535,-2.0534,-2.0537,-2.0474,-2.0465,-2.0537,-2.0537,-2.0537,-2.0537,-2.0537,-2.0537,-2.0266,-2.0307,-2.031,-2.0358,-2.0369,-2.0402,-2.0415,-2.0431,-2.0445,-2.0485,-2.0507,-2.0514,-2.0528,-2.0556,-2.0581,-2.0583,-2.0594,-2.0606,-2.0607,-2.0549,-2.0541,-2.0533,-2.0525,-2.0608,-2.0608,-2.0667,-2.0668,-2.0668]}]]